Weather History for Pellston, MI

Change the Weather History Date:

Friday, July 6, 2012

  Actual Average Record
Temperature  
Mean Temperature 73 °F -  
Max Temperature 87 °F 78 °F 95 °F (1988)
Min Temperature 59 °F 52 °F 28 °F (1965)
Cooling Degree Days 8    
Growing Degree Days 23 (Base 50)    
Moisture  
Dew Point 62 °F    
Average Humidity 84    
Maximum Humidity 100    
Minimum Humidity 36    
Precipitation  
Precipitation 0.00 in - - ()
Sea Level Pressure  
Sea Level Pressure 29.96 in    
Wind  
Wind Speed 1 mph (NW)    
Max Wind Speed 13 mph    
Max Gust Speed -    
Visibility 4 miles    
Events Fog    
Averages and records for this station are not official NWS values.
T = Trace of Precipitation, MM = Missing Value Source: NWS Daily Summary

Daily Weather History Graph

Daily Weather History Graph

Search for Another Location

Airport:

Trip Planner

Search our weather history database for the weather conditions in past years. The results will help you decide how hot, cold, wet, or windy it might be!

Date:

Astronomy

Jul. 06, 2012 Rise Set
Actual Time 5:57 AM EDT 9:30 PM EDT
Civil Twilight 5:20 AM EDT 10:07 PM EDT
Nautical Twilight 4:30 AM EDT 10:56 PM EDT
Astronomical Twilight 3:25 AM EDT 12:01 AM EDT
Moon 11:04 PM EDT (7/6) 9:28 AM EDT (7/6)
Length of Visible Light 16h 47m
Length of Day
15h 32m
Waning Gibbous, 89% of the Moon is Illuminated
Jul 6
Waning Gibbous
Jul 10
Last Quarter
Jul 19
New
Jul 26
First Quarter
Aug 1
Full

Hourly Weather History & Observations

Time (EDT) Temp. Heat Index Dew Point Humidity Pressure Visibility Wind Dir Wind Speed Gust Speed Precip Events Conditions
12:54 AM 71.1 °F - 70.0 °F 96% 29.92 in 9.0 mi Calm Calm - N/A   Clear
1:54 AM 68.0 °F - 66.9 °F 96% 29.92 in 1.8 mi Calm Calm - N/A   Clear
2:10 AM 66.2 °F - 66.2 °F 100% 29.93 in 3.0 mi Calm Calm - N/A   Clear
2:16 AM 66.2 °F - 66.2 °F 100% 29.93 in 1.8 mi Calm Calm - N/A   Clear
2:25 AM 66.2 °F - 66.2 °F 100% 29.94 in 0.5 mi Calm Calm - N/A Fog Fog
2:34 AM 66.2 °F - 66.2 °F 100% 29.94 in 2.5 mi Calm Calm - N/A   Partly Cloudy
2:41 AM 64.4 °F - 64.4 °F 100% 29.94 in 4.0 mi Calm Calm - N/A   Partly Cloudy
2:54 AM 64.9 °F - 64.0 °F 97% 29.94 in 2.5 mi Calm Calm - N/A   Clear
3:13 AM 64.4 °F - 64.4 °F 100% 29.95 in 1.8 mi Calm Calm - N/A   Clear
3:16 AM 64.4 °F - 64.4 °F 100% 29.95 in 3.0 mi Calm Calm - N/A   Clear
3:22 AM 64.4 °F - 64.4 °F 100% 29.95 in 1.8 mi Calm Calm - N/A   Clear
3:30 AM 64.4 °F - 64.4 °F 100% 29.95 in 0.2 mi Calm Calm - N/A Fog Fog
3:38 AM 62.6 °F - 62.6 °F 100% 29.95 in 0.5 mi Calm Calm - N/A Fog Fog
3:54 AM 63.0 °F - 63.0 °F 100% 29.95 in 0.5 mi Calm Calm - N/A Fog Fog
4:14 AM 62.6 °F - 62.6 °F 100% 29.96 in 0.5 mi Calm Calm - N/A Fog Fog
4:46 AM 60.8 °F - 60.8 °F 100% 29.95 in 1.5 mi Calm Calm - N/A   Clear
4:54 AM 61.0 °F - 61.0 °F 100% 29.95 in 0.8 mi Calm Calm - N/A   Clear
5:05 AM 60.8 °F - 60.8 °F 100% 29.96 in 0.2 mi Calm Calm - N/A Fog Fog
5:12 AM 60.8 °F - 60.8 °F 100% 29.96 in 0.5 mi Calm Calm - N/A Fog Fog
5:19 AM 60.8 °F - 60.8 °F 100% 29.96 in 0.2 mi Calm Calm - N/A Fog Fog
5:32 AM 60.8 °F - 60.8 °F 100% 29.96 in 0.2 mi Calm Calm - N/A Fog Fog
5:38 AM 60.8 °F - 60.8 °F 100% 29.96 in 0.5 mi Calm Calm - N/A Fog Fog
5:41 AM 60.8 °F - 60.8 °F 100% 29.96 in 1.2 mi Calm Calm - N/A   Scattered Clouds
5:49 AM 59.0 °F - 59.0 °F 100% 29.97 in 0.8 mi Calm Calm - N/A   Mist
5:54 AM 60.1 °F - 59.0 °F 96% 29.96 in 0.8 mi Calm Calm - N/A   Clear
6:09 AM 59.0 °F - 59.0 °F 100% 29.98 in 0.2 mi Calm Calm - N/A Fog Fog
6:14 AM 59.0 °F - 59.0 °F 100% 29.98 in 1.0 mi Calm Calm - N/A   Clear
6:17 AM 59.0 °F - 59.0 °F 100% 29.98 in 3.0 mi Calm Calm - N/A   Clear
6:39 AM 59.0 °F - 57.2 °F 94% 29.98 in 3.0 mi Calm Calm - N/A   Scattered Clouds
6:47 AM 60.8 °F - 60.8 °F 100% 29.98 in 2.0 mi Calm Calm - N/A   Scattered Clouds
6:54 AM 61.0 °F - 61.0 °F 100% 29.98 in 1.2 mi Calm Calm - N/A   Scattered Clouds
7:04 AM 62.6 °F - 62.6 °F 100% 29.98 in 3.0 mi Calm Calm - N/A   Partly Cloudy
7:54 AM 66.9 °F - 64.9 °F 93% 29.97 in 9.0 mi Calm Calm - N/A   Clear
8:54 AM 73.9 °F - 64.9 °F 73% 29.96 in 10.0 mi Calm Calm - N/A   Clear
9:54 AM 78.1 °F - 63.0 °F 60% 29.96 in 10.0 mi Calm Calm - N/A   Clear
10:54 AM 81.0 °F 82.2 °F 63.0 °F 54% 29.96 in 10.0 mi Calm Calm - N/A   Clear
11:54 AM 84.0 °F 85.8 °F 64.9 °F 53% 29.97 in 10.0 mi Calm Calm - N/A   Clear
12:54 PM 87.1 °F 88.3 °F 64.0 °F 46% 29.97 in 10.0 mi NNW 5.8 mph - N/A   Clear
1:54 PM 87.1 °F 89.2 °F 66.0 °F 49% 29.99 in 10.0 mi NW 12.7 mph - N/A   Clear
2:54 PM 87.1 °F 85.9 °F 57.0 °F 36% 29.97 in 10.0 mi Variable 3.5 mph - N/A   Clear
3:54 PM 86.0 °F 84.9 °F 57.0 °F 37% 29.96 in 10.0 mi North 6.9 mph - N/A   Clear
4:54 PM 84.9 °F 83.9 °F 57.0 °F 38% 29.95 in 10.0 mi West 5.8 mph - N/A   Clear
5:54 PM 82.4 °F 82.9 °F 60.8 °F 48% 29.94 in 10.0 mi WSW 3.5 mph - N/A   Clear
6:54 PM 82.9 °F 84.0 °F 63.0 °F 51% 29.94 in 10.0 mi WSW 4.6 mph - N/A   Clear
7:54 PM 82.0 °F 83.8 °F 64.9 °F 56% 29.94 in 10.0 mi NNW 5.8 mph - N/A   Clear
8:54 PM 79.0 °F - 63.0 °F 58% 29.96 in 10.0 mi North 8.1 mph - N/A   Clear
9:54 PM 70.0 °F - 62.1 °F 76% 29.93 in 10.0 mi Calm Calm - N/A   Clear
10:54 PM 72.0 °F - 62.1 °F 71% 29.92 in 10.0 mi Calm Calm - N/A   Clear
11:54 PM 73.0 °F - 59.0 °F 61% 29.94 in 10.0 mi North 11.5 mph - N/A   Clear